Frederick, OK

2:33 PM CST on January 22, 2017 (GMT -0600)
Frederick Municipal

Weather History for KFDR - April, 2013

Change the Weather History Date:

Monday, April 22, 2013

  Actual Average (KLTS) Record (KLTS)
Temperature  
Mean Temperature 65 °F -  
Max Temperature 82 °F 73 °F 95 °F (2009)
Min Temperature 48 °F 49 °F 44 °F (1998)
Growing Degree Days 15 (Base 50)    
Moisture  
Dew Point 52 °F    
Average Humidity 64    
Maximum Humidity 89    
Minimum Humidity 39    
Precipitation  
Precipitation 0.00 in - - ()
Sea Level Pressure  
Sea Level Pressure 29.83 in    
Wind  
Wind Speed 13 mph (SE)    
Max Wind Speed 24 mph    
Max Gust Speed 32 mph    
Visibility 10 miles    
Events      
Averages and records for this station are not official NWS values.
T = Trace of Precipitation, MM = Missing Value Source: NWS Daily Summary

Daily Weather History Graph

Daily Weather History Graph

Search for Another Location

Airport or City:

Trip Planner

Search our weather history database for the weather conditions in past years. The results will help you decide how hot, cold, wet, or windy it might be!

Date:

Astronomy

Apr. 22, 2013 Rise Set
Actual Time 6:55 AM CDT 8:13 PM CDT
Civil Twilight 6:29 AM CDT 8:39 PM CDT
Nautical Twilight 5:58 AM CDT 9:11 PM CDT
Astronomical Twilight 5:25 AM CDT 9:43 PM CDT
Moon 5:11 PM CDT 4:42 AM CDT
Length of Visible Light 14h 10m
Length of Day
13h 17m
Waxing Gibbous, 88% of the Moon is Illuminated
Apr 22
Waxing Gibbous
Apr 25
Full
May 2
Last Quarter
May 9
New
May 17
First Quarter

Hourly Weather History & Observations

Time (CDT) Temp. Heat Index Dew Point Humidity Pressure Visibility Wind Dir Wind Speed Gust Speed Precip Events Conditions
12:53 AM 53.1 °F - 48.0 °F 83% 30.02 in 10.0 mi ESE 8.1 mph - N/A   Clear
1:53 AM 51.1 °F - 46.9 °F 86% 30.01 in 10.0 mi East 8.1 mph - N/A   Clear
2:53 AM 51.1 °F - 46.9 °F 86% 29.98 in 10.0 mi ESE 8.1 mph - N/A   Clear
3:53 AM 51.1 °F - 46.9 °F 86% 29.96 in 10.0 mi ESE 9.2 mph - N/A   Clear
4:53 AM 50.0 °F - 46.0 °F 86% 29.95 in 10.0 mi East 8.1 mph - N/A   Clear
5:53 AM 50.0 °F - 46.0 °F 86% 29.95 in 10.0 mi East 9.2 mph - N/A   Clear
6:53 AM 48.0 °F - 45.0 °F 89% 29.94 in 8.0 mi ESE 8.1 mph - N/A   Clear
7:53 AM 51.1 °F - 46.9 °F 86% 29.95 in 9.0 mi East 6.9 mph - N/A   Clear
8:53 AM 57.9 °F - 51.1 °F 78% 29.95 in 10.0 mi South 11.5 mph - N/A   Mostly Cloudy
9:53 AM 63.0 °F - 54.0 °F 72% 29.94 in 10.0 mi South 13.8 mph 21.9 mph N/A   Mostly Cloudy
10:53 AM 66.0 °F - 55.0 °F 68% 29.91 in 10.0 mi South 21.9 mph 29.9 mph N/A   Overcast
11:28 AM 68.0 °F - 55.4 °F 64% 29.92 in 10.0 mi South 19.6 mph 31.1 mph N/A   Overcast
11:53 AM 69.1 °F - 55.0 °F 61% 29.90 in 10.0 mi South 18.4 mph 26.5 mph N/A   Overcast
12:53 PM 73.9 °F - 55.0 °F 52% 29.86 in 10.0 mi South 18.4 mph 27.6 mph N/A   Mostly Cloudy
1:53 PM 77.0 °F - 55.9 °F 48% 29.82 in 10.0 mi South 18.4 mph 29.9 mph N/A   Partly Cloudy
2:53 PM 79.0 °F - 55.9 °F 45% 29.78 in 10.0 mi South 24.2 mph 29.9 mph N/A   Clear
3:53 PM 82.0 °F 81.7 °F 57.0 °F 42% 29.73 in 10.0 mi SSE 19.6 mph 27.6 mph N/A   Clear
4:53 PM 82.9 °F 82.1 °F 55.9 °F 39% 29.70 in 10.0 mi South 20.7 mph 27.6 mph N/A   Clear
5:53 PM 82.0 °F 81.6 °F 55.9 °F 41% 29.68 in 10.0 mi SSE 20.7 mph 31.1 mph N/A   Clear
6:53 PM 80.1 °F 80.1 °F 55.0 °F 42% 29.66 in 10.0 mi SE 24.2 mph 29.9 mph N/A   Clear
7:53 PM 77.0 °F - 54.0 °F 45% 29.65 in 10.0 mi SE 19.6 mph 27.6 mph N/A   Clear
8:53 PM 73.9 °F - 54.0 °F 50% 29.63 in 10.0 mi SE 21.9 mph 32.2 mph N/A   Clear
9:53 PM 73.0 °F - 54.0 °F 51% 29.65 in 10.0 mi SE 18.4 mph - N/A   Clear
10:53 PM 71.1 °F - 54.0 °F 55% 29.66 in 10.0 mi SE 13.8 mph 21.9 mph N/A   Clear
11:53 PM 68.0 °F - 55.9 °F 65% 29.65 in 10.0 mi SE 15.0 mph - N/A   Clear